STARLINK-5688, 55479

Orbit data source: Space-Track

STARLINK-5688, 55479 is a payload satellite owned by SpaceX/Seattle (US) in LEO that was launched on Thu, 02 Feb 2023 UTC via an FALCON 9 launch vehicle from the Air Force Eastern Test Range (AFETR). Payload-class satellites include a variety of spacecraft equipped with specific instruments for various scientific and technological missions. These include communications satellites like Starlink; space stations such as the ISS; scientific satellites like the Hubble; Earth observation satellites from companies like Planet Labs, Umbra, and HawkEye 360; GPS; miniature CubeSats for education and research; and military/defense satellites.

Loading next visibility...
Identifier
55479, 2023-015AG
Orbit
LEO
Country
Flag of USUS
Related business
Manufacturer
SpaceX/Seattle
Mission
Operational Commercial Communications
Bus & Motor
STARLINK, Unknown motor
Mass
305 kg wet, ~290 kg dry
Launch date (UTC)
2023-02-02 (3 years ago)
Launch vehicle
FALCON 9
Launch site
Air Force Eastern Test Range (AFETR)
Object type
Payload
Rocket body
Debris
Shape & HBR
Box + 1 Pan, 10.1 m
Radar Cross Section
13.562 m², Large (>1 m²)

Expand to show TLE details & history
Last TLE update: 5 hours ago

TLE from 5 hours ago
0 STARLINK-5688
1 55479U 23015AG  26035.76372887 -.00004714  00000-0 -33395-3 0  9999
2 55479  43.0034 132.5288 0001494 279.1377  80.9297 15.02555538165948
Epoch: 2026-02-04T18:19Z
TLE epoch observation values (Epoch: 2026-02-04T18:19:46.174Z)
Latitude
0.00003°
Longitude
82.66081°
Altitude
558.634 km
Speed
7.584 km/s
True Right ascension
08h 50m 06s
True Declination
0° 00' 00"
Sunlit
Object was in full shadow at epoch
Visualization orbit readout
Latitude
Unknown
Longitude
Unknown
Altitude
Unknown
Speed
Unknown
Apparent Right ascension
Unknown
Apparent Declination
Unknown
Sunlit
N/A
Visualization observer readout
Local Sidereal Time
01:43:41
Azimuth
Unknown
Elevation
Unknown
Doppler factor
Unknown
Orbital elements
Apogee altitude
561.979 km
Perigee altitude
559.906 km
Semi-major axis
6,939.08 km
Eccentricity
0.00015
Inclination
43.0034°
RAAN
132.5288°
Arg. of periapsis
279.1377°
True anomaly
80.94661°
Mean anomaly
80.9297°
Eccentric anomaly
80.93815°
Mean motion
3.75483 °/min
Orbital period
95.88 mins
BSTAR
-0.00033395
Loading maneuver chart data...
Computing Atmospheric mass density...
Loading historical data...
Loading historical data...
Loading historical data...
Loading historical data...
Loading historical data...
Loading historical data...
Loading historical data...

Documentation

Showing up to 5 results
|